This is the latest recevied weather packets stored in our database for station/object KF7SOJ. If no packets are shown the sender has not sent any weather packets the latest 10 day(s).
| Time | Temp. | Humidity | Pressure | Rain* | Wind** | Luminosity | Snow |
|---|---|---|---|---|---|---|---|
| 1788182170 | 11.11° C | 68% | 933.2 hPa | 0 mm | - | 41 W/m² | - |
| 1788181867 | 10.56° C | 67% | 933.2 hPa | 0 mm | - | 36 W/m² | - |
| 1788181561 | 10.56° C | 66% | 933.1 hPa | 0 mm | - | 31 W/m² | - |
| 1788181257 | 10.56° C | 64% | 933.2 hPa | 0 mm | - | 26 W/m² | - |
| 1788180955 | 10.56° C | 64% | 932.9 hPa | 0 mm | - | 21 W/m² | - |
| 1788180651 | 10.56° C | 65% | 933 hPa | 0 mm | - | 16 W/m² | - |
| 1788180347 | 10.56° C | 66% | 933.1 hPa | 0 mm | - | 12 W/m² | - |
| 1788180043 | 10° C | 69% | 932.9 hPa | 0 mm | - | 8 W/m² | - |
| 1788179742 | 10° C | 70% | 932.6 hPa | 0 mm | - | 5 W/m² | - |
| 1788179437 | 10° C | 72% | 932.8 hPa | 0 mm | - | 3 W/m² | - |
| 1788179137 | 9.44° C | 73% | 932.8 hPa | 0 mm | - | 2 W/m² | - |
| 1788178833 | 10° C | 72% | 932.8 hPa | 0 mm | - | 1 W/m² | - |
| 1788178533 | 10° C | 73% | 932.7 hPa | 0 mm | - | 0 W/m² | - |
| 1788178229 | 9.44° C | 74% | 932.6 hPa | 0 mm | - | 0 W/m² | - |
| 1788177928 | 9.44° C | 75% | 932.7 hPa | 0 mm | - | 0 W/m² | - |
| 1788177624 | 9.44° C | 75% | 932.8 hPa | 0 mm | - | 0 W/m² | - |
| 1788177320 | 9.44° C | 76% | 932.6 hPa | 0 mm | - | 0 W/m² | - |
| 1788177015 | 9.44° C | 77% | 932.7 hPa | 0 mm | - | 0 W/m² | - |
| 1788176714 | 9.44° C | 76% | 932.7 hPa | 0 mm | - | 0 W/m² | - |
| 1788176409 | 9.44° C | 75% | 932.4 hPa | 0 mm | - | 0 W/m² | - |
| 1788176108 | 10° C | 74% | 932.6 hPa | 0 mm | - | 0 W/m² | - |
| 1788175804 | 10° C | 74% | 932.6 hPa | 0 mm | - | 0 W/m² | - |
| 1788175503 | 10° C | 74% | 932.5 hPa | 0 mm | - | 0 W/m² | - |
| 1788175198 | 10° C | 73% | 932.4 hPa | 0 mm | - | 0 W/m² | - |
| 1788174894 | 9.44° C | 76% | 932.5 hPa | 0 mm | - | 0 W/m² | - |
* Rain latest hour (hover to see other rain measurements)
** Current wind speed in m/s (hover to see current wind gust speed)